Location: Azul
(36.7830°S, 59.8500°W)
Time: 18:58:45
(UTC-03:00)

ISS - Pass Details

Date: 16 February 2020
Orbit: 415 x 422 km, 51.6° (Epoch: 27 February)

Event Time Altitude Azimuth Distance (km) Brightness Sun altitude
Exits shadow 05:28:12 11° 346° (NNW) 1,448 -1.4 -12.6°
Drops below altitude 10° 05:28:24 10° 349° (NNW) 1,498 -1.3 -12.5°
Sets 05:31:03 0° 11° (N) 2,353 -0.1 -12.1°
